Year,Month,Day,Hour,Minute,Value (Times are PST for temperature in C)
2013,05,06,00,00,20.90
2013,05,06,00,01,20.90
2013,05,06,00,02,20.90
2013,05,06,00,03,20.90
2013,05,06,00,04,20.90
2013,05,06,00,05,20.90
2013,05,06,00,06,20.90
2013,05,06,00,07,20.90
2013,05,06,00,08,20.90
2013,05,06,00,09,20.90
2013,05,06,00,10,20.90
2013,05,06,00,11,20.90
2013,05,06,00,12,20.90
2013,05,06,00,13,20.90
2013,05,06,00,14,20.90
2013,05,06,00,15,20.90
2013,05,06,00,16,20.90
2013,05,06,00,17,20.90
2013,05,06,00,18,20.90
2013,05,06,00,19,20.90
2013,05,06,00,20,20.90
2013,05,06,00,21,20.90
2013,05,06,00,22,20.90
2013,05,06,00,23,20.90
2013,05,06,00,24,20.90
2013,05,06,00,25,20.90
2013,05,06,00,26,20.90
2013,05,06,00,27,20.90
2013,05,06,00,28,21.00
2013,05,06,00,29,21.00
2013,05,06,00,30,21.00
2013,05,06,00,31,21.00
2013,05,06,00,32,21.00
2013,05,06,00,33,21.00
2013,05,06,00,34,21.00
2013,05,06,00,35,21.00
2013,05,06,00,36,21.00
2013,05,06,00,37,21.00
2013,05,06,00,38,21.00
2013,05,06,00,39,21.00
2013,05,06,00,40,21.00
2013,05,06,00,41,21.00
2013,05,06,00,42,21.00
2013,05,06,00,43,20.90
2013,05,06,00,44,20.90
2013,05,06,00,45,20.90
2013,05,06,00,46,20.90
2013,05,06,00,47,20.90
2013,05,06,00,48,20.90
2013,05,06,00,49,20.90
2013,05,06,00,50,20.90
2013,05,06,00,51,20.90
2013,05,06,00,52,21.00
2013,05,06,00,53,21.00
2013,05,06,00,54,21.00
2013,05,06,00,55,21.10
2013,05,06,00,56,21.10
2013,05,06,00,57,21.10
2013,05,06,00,58,21.10
2013,05,06,00,59,21.10
2013,05,06,01,00,21.00
2013,05,06,01,01,21.00
2013,05,06,01,02,21.00
2013,05,06,01,03,21.00
2013,05,06,01,04,21.10
2013,05,06,01,05,21.10
2013,05,06,01,06,21.10
2013,05,06,01,07,21.10
2013,05,06,01,08,21.10
2013,05,06,01,09,21.10
2013,05,06,01,10,21.10
2013,05,06,01,11,21.00
2013,05,06,01,12,21.00
2013,05,06,01,13,20.90
2013,05,06,01,14,20.80
2013,05,06,01,15,20.70
2013,05,06,01,16,20.70
2013,05,06,01,17,20.60
2013,05,06,01,18,20.50
2013,05,06,01,19,20.40
2013,05,06,01,20,20.30
2013,05,06,01,21,20.20
2013,05,06,01,22,20.10
2013,05,06,01,23,19.90
2013,05,06,01,24,19.90
2013,05,06,01,25,19.80
2013,05,06,01,26,19.70
2013,05,06,01,27,19.60
2013,05,06,01,28,19.50
2013,05,06,01,29,19.50
2013,05,06,01,30,19.40
2013,05,06,01,31,19.30
2013,05,06,01,32,19.20
2013,05,06,01,33,19.10
2013,05,06,01,34,19.10
2013,05,06,01,35,19.00
2013,05,06,01,36,18.90
2013,05,06,01,37,18.70
2013,05,06,01,38,18.60
2013,05,06,01,39,18.40
2013,05,06,01,40,18.30
2013,05,06,01,41,18.20
2013,05,06,01,42,18.10
2013,05,06,01,43,18.00
2013,05,06,01,44,17.90
2013,05,06,01,45,17.80
2013,05,06,01,46,17.70
2013,05,06,01,47,17.70
2013,05,06,01,48,17.60
2013,05,06,01,49,17.50
2013,05,06,01,50,17.50
2013,05,06,01,51,17.50
2013,05,06,01,52,17.40
2013,05,06,01,53,17.40
2013,05,06,01,54,17.40
2013,05,06,01,55,17.30
2013,05,06,01,56,17.30
2013,05,06,01,57,17.30
2013,05,06,01,58,17.30
2013,05,06,01,59,17.30
2013,05,06,02,00,17.20
2013,05,06,02,01,17.10
2013,05,06,02,02,17.00
2013,05,06,02,03,16.90
2013,05,06,02,04,16.80
2013,05,06,02,05,16.90
2013,05,06,02,06,17.10
2013,05,06,02,07,17.30
2013,05,06,02,08,17.30
2013,05,06,02,09,17.40
2013,05,06,02,10,17.40
2013,05,06,02,11,17.40
2013,05,06,02,12,17.30
2013,05,06,02,13,17.30
2013,05,06,02,14,17.30
2013,05,06,02,15,17.30
2013,05,06,02,16,17.30
2013,05,06,02,17,17.20
2013,05,06,02,18,17.20
2013,05,06,02,19,17.10
2013,05,06,02,20,17.10
2013,05,06,02,21,17.00
2013,05,06,02,22,16.90
2013,05,06,02,23,16.90
2013,05,06,02,24,16.80
2013,05,06,02,25,16.80
2013,05,06,02,26,16.80
2013,05,06,02,27,16.70
2013,05,06,02,28,16.70
2013,05,06,02,29,16.70
2013,05,06,02,30,16.70
2013,05,06,02,31,16.70
2013,05,06,02,32,16.70
2013,05,06,02,33,16.60
2013,05,06,02,34,16.60
2013,05,06,02,35,16.60
2013,05,06,02,36,16.60
2013,05,06,02,37,16.60
2013,05,06,02,38,16.50
2013,05,06,02,39,16.40
2013,05,06,02,40,16.40
2013,05,06,02,41,16.40
2013,05,06,02,42,16.40
2013,05,06,02,43,16.40
2013,05,06,02,44,16.40
2013,05,06,02,45,16.40
2013,05,06,02,46,16.40
2013,05,06,02,47,16.40
2013,05,06,02,48,16.40
2013,05,06,02,49,16.30
2013,05,06,02,50,16.30
2013,05,06,02,51,16.30
2013,05,06,02,52,16.20
2013,05,06,02,53,16.20
2013,05,06,02,54,16.20
2013,05,06,02,55,16.20
2013,05,06,02,56,16.20
2013,05,06,02,57,16.20
2013,05,06,02,58,16.20
2013,05,06,02,59,16.20
2013,05,06,03,00,16.20
2013,05,06,03,01,16.10
2013,05,06,03,02,16.10
2013,05,06,03,03,16.10
2013,05,06,03,04,16.10
2013,05,06,03,05,16.10
2013,05,06,03,06,16.10
2013,05,06,03,07,16.10
2013,05,06,03,08,16.10
2013,05,06,03,09,16.10
2013,05,06,03,10,16.10
2013,05,06,03,11,16.10
2013,05,06,03,12,16.10
2013,05,06,03,13,16.10
2013,05,06,03,14,16.10
2013,05,06,03,15,16.10
2013,05,06,03,16,16.10
2013,05,06,03,17,16.10
2013,05,06,03,18,16.10
2013,05,06,03,19,16.10
2013,05,06,03,20,16.10
2013,05,06,03,21,16.20
2013,05,06,03,22,16.20
2013,05,06,03,23,16.20
2013,05,06,03,24,16.20
2013,05,06,03,25,16.30
2013,05,06,03,26,16.30
2013,05,06,03,27,16.30
2013,05,06,03,28,16.40
2013,05,06,03,29,16.40
2013,05,06,03,30,16.40
2013,05,06,03,31,16.40
2013,05,06,03,32,16.40
2013,05,06,03,33,16.50
2013,05,06,03,34,16.60
2013,05,06,03,35,16.60
2013,05,06,03,36,16.70
2013,05,06,03,37,16.70
2013,05,06,03,38,16.70
2013,05,06,03,39,16.70
2013,05,06,03,40,16.70
2013,05,06,03,41,16.70
2013,05,06,03,42,16.70
2013,05,06,03,43,16.70
2013,05,06,03,44,16.70
2013,05,06,03,45,16.70
2013,05,06,03,46,16.70
2013,05,06,03,47,16.70
2013,05,06,03,48,16.70
2013,05,06,03,49,16.70
2013,05,06,03,50,16.70
2013,05,06,03,51,16.70
2013,05,06,03,52,16.60
2013,05,06,03,53,16.60
2013,05,06,03,54,16.60
2013,05,06,03,55,16.60
2013,05,06,03,56,16.60
2013,05,06,03,57,16.60
2013,05,06,03,58,16.60
2013,05,06,03,59,16.60
2013,05,06,04,00,16.60
2013,05,06,04,01,16.60
2013,05,06,04,02,16.60
2013,05,06,04,03,16.60
2013,05,06,04,04,16.60
2013,05,06,04,05,16.60
2013,05,06,04,06,16.60
2013,05,06,04,07,16.60
2013,05,06,04,08,16.60
2013,05,06,04,09,16.60
2013,05,06,04,10,16.60
2013,05,06,04,11,16.60
2013,05,06,04,12,16.60
2013,05,06,04,13,16.60
2013,05,06,04,14,16.50
2013,05,06,04,15,16.40
2013,05,06,04,16,16.40
2013,05,06,04,17,16.40
2013,05,06,04,18,16.40
2013,05,06,04,19,16.40
2013,05,06,04,20,16.40
2013,05,06,04,21,16.40
2013,05,06,04,22,16.40
2013,05,06,04,23,16.40
2013,05,06,04,24,16.40
2013,05,06,04,25,16.40
2013,05,06,04,26,16.40
2013,05,06,04,27,16.40
2013,05,06,04,28,16.40
2013,05,06,04,29,16.40
2013,05,06,04,30,16.40
2013,05,06,04,31,16.40
2013,05,06,04,32,16.40
2013,05,06,04,33,16.40
2013,05,06,04,34,16.40
2013,05,06,04,35,16.40
2013,05,06,04,36,16.40
2013,05,06,04,37,16.40
2013,05,06,04,38,16.40
2013,05,06,04,39,16.40
2013,05,06,04,40,16.40
2013,05,06,04,41,16.40
2013,05,06,04,42,16.40
2013,05,06,04,43,16.40
2013,05,06,04,44,16.40
2013,05,06,04,45,16.40
2013,05,06,04,46,16.40
2013,05,06,04,47,16.40
2013,05,06,04,48,16.40
2013,05,06,04,49,16.40
2013,05,06,04,50,16.40
2013,05,06,04,51,16.40
2013,05,06,04,52,16.40
2013,05,06,04,53,16.40
2013,05,06,04,54,16.40
2013,05,06,04,55,16.40
2013,05,06,04,56,16.40
2013,05,06,04,57,16.40
2013,05,06,04,58,16.40
2013,05,06,04,59,16.30
2013,05,06,05,00,16.30
2013,05,06,05,01,16.30
2013,05,06,05,02,16.30
2013,05,06,05,03,16.30
2013,05,06,05,04,16.30
2013,05,06,05,05,16.30
2013,05,06,05,06,16.30
2013,05,06,05,07,16.30
2013,05,06,05,08,16.30
2013,05,06,05,09,16.30
2013,05,06,05,10,16.20
2013,05,06,05,11,16.20
2013,05,06,05,12,16.20
2013,05,06,05,13,16.20
2013,05,06,05,14,16.20
2013,05,06,05,15,16.10
2013,05,06,05,16,16.10
2013,05,06,05,17,16.10
2013,05,06,05,18,16.10
2013,05,06,05,19,16.10
2013,05,06,05,20,16.10
2013,05,06,05,21,16.10
2013,05,06,05,22,16.10
2013,05,06,05,23,16.10
2013,05,06,05,24,16.10
2013,05,06,05,25,16.10
2013,05,06,05,26,16.10
2013,05,06,05,27,16.10
2013,05,06,05,28,16.00
2013,05,06,05,29,15.90
2013,05,06,05,30,15.90
2013,05,06,05,31,15.90
2013,05,06,05,32,15.80
2013,05,06,05,33,15.80
2013,05,06,05,34,15.80
2013,05,06,05,35,15.80
2013,05,06,05,36,15.80
2013,05,06,05,37,15.80
2013,05,06,05,38,15.80
2013,05,06,05,39,15.80
2013,05,06,05,40,15.80
2013,05,06,05,41,15.80
2013,05,06,05,42,15.70
2013,05,06,05,43,15.70
2013,05,06,05,44,15.70
2013,05,06,05,45,15.70
2013,05,06,05,46,15.70
2013,05,06,05,47,15.80
2013,05,06,05,48,15.80
2013,05,06,05,49,15.80
2013,05,06,05,50,15.80
2013,05,06,05,51,15.80
2013,05,06,05,52,15.80
2013,05,06,05,53,15.80
2013,05,06,05,54,15.80
2013,05,06,05,55,15.80
2013,05,06,05,56,15.90
2013,05,06,05,57,15.90
2013,05,06,05,58,15.90
2013,05,06,05,59,16.00
2013,05,06,06,00,16.10
2013,05,06,06,01,16.10
2013,05,06,06,02,16.10
2013,05,06,06,03,16.10
2013,05,06,06,04,16.10
2013,05,06,06,05,16.10
2013,05,06,06,06,16.10
2013,05,06,06,07,16.10
2013,05,06,06,08,16.10
2013,05,06,06,09,16.10
2013,05,06,06,10,16.10
2013,05,06,06,11,16.10
2013,05,06,06,12,16.10
2013,05,06,06,13,16.10
2013,05,06,06,14,16.10
2013,05,06,06,15,16.10
2013,05,06,06,16,16.10
2013,05,06,06,17,16.10
2013,05,06,06,18,16.00
2013,05,06,06,19,15.90
2013,05,06,06,20,15.90
2013,05,06,06,21,15.90
2013,05,06,06,22,15.90
2013,05,06,06,23,15.90
2013,05,06,06,24,15.90
2013,05,06,06,25,15.90
2013,05,06,06,26,15.90
2013,05,06,06,27,15.90
2013,05,06,06,28,15.90
2013,05,06,06,29,16.00
2013,05,06,06,30,16.10
2013,05,06,06,31,16.10
2013,05,06,06,32,16.10
2013,05,06,06,33,16.10
2013,05,06,06,34,16.10
2013,05,06,06,35,16.10
2013,05,06,06,36,16.10
2013,05,06,06,37,16.10
2013,05,06,06,38,16.20
2013,05,06,06,39,16.20
2013,05,06,06,40,16.30
2013,05,06,06,41,16.30
2013,05,06,06,42,16.40
2013,05,06,06,43,16.50
2013,05,06,06,44,16.60
2013,05,06,06,45,16.70
2013,05,06,06,46,16.70
2013,05,06,06,47,16.70
2013,05,06,06,48,16.70
2013,05,06,06,49,16.80
2013,05,06,06,50,16.80
2013,05,06,06,51,16.90
2013,05,06,06,52,16.90
2013,05,06,06,53,17.00
2013,05,06,06,54,17.00
2013,05,06,06,55,17.10
2013,05,06,06,56,17.20
2013,05,06,06,57,17.30
2013,05,06,06,58,17.30
2013,05,06,06,59,17.30
2013,05,06,07,00,17.30
2013,05,06,07,01,17.30
2013,05,06,07,02,17.30
2013,05,06,07,03,17.30
2013,05,06,07,04,17.30
2013,05,06,07,05,17.30
2013,05,06,07,06,17.30
2013,05,06,07,07,17.30
2013,05,06,07,08,17.30
2013,05,06,07,09,17.30
2013,05,06,07,10,17.30
2013,05,06,07,11,17.20
2013,05,06,07,12,17.20
2013,05,06,07,13,17.20
2013,05,06,07,14,17.20
2013,05,06,07,15,17.20
2013,05,06,07,16,17.20
2013,05,06,07,17,17.30
2013,05,06,07,18,17.20
2013,05,06,07,19,17.20
2013,05,06,07,20,17.20
2013,05,06,07,21,17.20
2013,05,06,07,22,17.20
2013,05,06,07,23,17.30
2013,05,06,07,24,17.30
2013,05,06,07,25,17.30
2013,05,06,07,26,17.30
2013,05,06,07,27,17.30
2013,05,06,07,28,17.30
2013,05,06,07,29,17.30
2013,05,06,07,30,17.30
2013,05,06,07,31,17.30
2013,05,06,07,32,17.30
2013,05,06,07,33,17.30
2013,05,06,07,34,17.30
2013,05,06,07,35,17.30
2013,05,06,07,36,17.40
2013,05,06,07,37,17.40
2013,05,06,07,38,17.50
2013,05,06,07,39,17.50
2013,05,06,07,40,17.60
2013,05,06,07,41,17.60
2013,05,06,07,42,17.70
2013,05,06,07,43,17.70
2013,05,06,07,44,17.80
2013,05,06,07,45,17.90
2013,05,06,07,46,17.90
2013,05,06,07,47,17.90
2013,05,06,07,48,17.90
2013,05,06,07,49,18.00
2013,05,06,07,50,18.10
2013,05,06,07,51,18.10
2013,05,06,07,52,18.10
2013,05,06,07,53,18.10
2013,05,06,07,54,18.20
2013,05,06,07,55,18.20
2013,05,06,07,56,18.20
2013,05,06,07,57,18.20
2013,05,06,07,58,18.20
2013,05,06,07,59,18.20
2013,05,06,08,00,18.20
2013,05,06,08,01,18.20
2013,05,06,08,02,18.10
2013,05,06,08,03,18.20
2013,05,06,08,04,18.20
2013,05,06,08,05,18.20
2013,05,06,08,06,18.20
2013,05,06,08,07,18.30
2013,05,06,08,08,18.30
2013,05,06,08,09,18.30
2013,05,06,08,10,18.40
2013,05,06,08,11,18.40
2013,05,06,08,12,18.40
2013,05,06,08,13,18.40
2013,05,06,08,14,18.50
2013,05,06,08,15,18.60
2013,05,06,08,16,18.60
2013,05,06,08,17,18.60
2013,05,06,08,18,18.60
2013,05,06,08,19,18.70
2013,05,06,08,20,18.70
2013,05,06,08,21,18.70
2013,05,06,08,22,18.70
2013,05,06,08,23,18.80
2013,05,06,08,24,18.90
2013,05,06,08,25,18.90
2013,05,06,08,26,18.90
2013,05,06,08,27,18.90
2013,05,06,08,28,18.90
2013,05,06,08,29,19.10
2013,05,06,08,30,19.10
2013,05,06,08,31,19.10
2013,05,06,08,32,19.10
2013,05,06,08,33,19.10
2013,05,06,08,34,19.10
2013,05,06,08,35,19.10
2013,05,06,08,36,19.10
2013,05,06,08,37,19.20
2013,05,06,08,38,19.20
2013,05,06,08,39,19.30
2013,05,06,08,40,19.40
2013,05,06,08,41,19.40
2013,05,06,08,42,19.50
2013,05,06,08,43,19.60
2013,05,06,08,44,19.60
2013,05,06,08,45,19.70
2013,05,06,08,46,19.80
2013,05,06,08,47,19.80
2013,05,06,08,48,19.80
2013,05,06,08,49,19.80
2013,05,06,08,50,19.80
2013,05,06,08,51,19.80
2013,05,06,08,52,19.80
2013,05,06,08,53,19.80
2013,05,06,08,54,19.90
2013,05,06,08,55,19.90
2013,05,06,08,56,19.90
2013,05,06,08,57,20.00
2013,05,06,08,58,20.10
2013,05,06,08,59,20.20
2013,05,06,09,00,20.20
2013,05,06,09,01,20.20
2013,05,06,09,02,20.20
2013,05,06,09,03,20.20
2013,05,06,09,04,20.20
2013,05,06,09,05,20.20
2013,05,06,09,06,20.20
2013,05,06,09,07,20.20
2013,05,06,09,08,20.20
2013,05,06,09,09,20.20
2013,05,06,09,10,20.20
2013,05,06,09,11,20.20
2013,05,06,09,12,20.20
2013,05,06,09,13,20.20
2013,05,06,09,14,20.20
2013,05,06,09,15,20.20
2013,05,06,09,16,20.20
2013,05,06,09,17,20.20
2013,05,06,09,18,20.20
2013,05,06,09,19,20.20
2013,05,06,09,20,20.20
2013,05,06,09,21,20.20
2013,05,06,09,22,20.20
2013,05,06,09,23,20.10
2013,05,06,09,24,20.00
2013,05,06,09,25,19.90
2013,05,06,09,26,19.90
2013,05,06,09,27,19.90
2013,05,06,09,28,19.90
2013,05,06,09,29,19.90
2013,05,06,09,30,20.00
2013,05,06,09,31,20.10
2013,05,06,09,32,20.10
2013,05,06,09,33,20.10
2013,05,06,09,34,20.20
2013,05,06,09,35,20.20
2013,05,06,09,36,20.20
2013,05,06,09,37,20.20
2013,05,06,09,38,20.20
2013,05,06,09,39,20.20
2013,05,06,09,40,20.20
2013,05,06,09,41,20.20
2013,05,06,09,42,20.30
2013,05,06,09,43,20.30
2013,05,06,09,44,20.40
2013,05,06,09,45,20.40
2013,05,06,09,46,20.50
2013,05,06,09,47,20.50
2013,05,06,09,48,20.50
2013,05,06,09,49,20.50
2013,05,06,09,50,20.40
2013,05,06,09,51,20.40
2013,05,06,09,52,20.40
2013,05,06,09,53,20.30
2013,05,06,09,54,20.30
2013,05,06,09,55,20.40
2013,05,06,09,56,20.40
2013,05,06,09,57,20.40
2013,05,06,09,58,20.40
2013,05,06,09,59,20.30
2013,05,06,10,00,20.30
2013,05,06,10,01,20.30
2013,05,06,10,02,20.30
2013,05,06,10,03,20.20
2013,05,06,10,04,20.20
2013,05,06,10,05,20.20
2013,05,06,10,06,20.30
2013,05,06,10,07,20.30
2013,05,06,10,08,20.40
2013,05,06,10,09,20.40
2013,05,06,10,10,20.30
2013,05,06,10,11,20.40
2013,05,06,10,12,20.40
2013,05,06,10,13,20.50
2013,05,06,10,14,20.60
2013,05,06,10,15,20.70
2013,05,06,10,16,20.80
2013,05,06,10,17,20.80
2013,05,06,10,18,20.80
2013,05,06,10,19,20.80
2013,05,06,10,20,20.80
2013,05,06,10,21,20.80
2013,05,06,10,22,20.80
2013,05,06,10,23,20.90
2013,05,06,10,24,20.80
2013,05,06,10,25,20.80
2013,05,06,10,26,20.70
2013,05,06,10,27,20.70
2013,05,06,10,28,20.80
2013,05,06,10,29,20.80
2013,05,06,10,30,20.80
2013,05,06,10,31,20.80
2013,05,06,10,32,20.70
2013,05,06,10,33,20.80
2013,05,06,10,34,20.80
2013,05,06,10,35,20.80
2013,05,06,10,36,20.80
2013,05,06,10,37,20.90
2013,05,06,10,38,20.90
2013,05,06,10,39,20.90
2013,05,06,10,40,21.00
2013,05,06,10,41,21.00
2013,05,06,10,42,21.00
2013,05,06,10,43,21.00
2013,05,06,10,44,21.10
2013,05,06,10,45,21.20
2013,05,06,10,46,21.30
2013,05,06,10,47,21.20
2013,05,06,10,48,21.20
2013,05,06,10,49,21.30
2013,05,06,10,50,21.30
2013,05,06,10,51,21.40
2013,05,06,10,52,21.50
2013,05,06,10,53,21.70
2013,05,06,10,54,21.80
2013,05,06,10,55,22.00
2013,05,06,10,56,22.00
2013,05,06,10,57,22.10
2013,05,06,10,58,22.10
2013,05,06,10,59,22.10
2013,05,06,11,00,22.20
2013,05,06,11,01,22.30
2013,05,06,11,02,22.30
2013,05,06,11,03,22.30
2013,05,06,11,04,22.30
2013,05,06,11,05,22.30
2013,05,06,11,06,22.20
2013,05,06,11,07,22.20
2013,05,06,11,08,22.10
2013,05,06,11,09,22.10
2013,05,06,11,10,22.10
2013,05,06,11,11,22.10
2013,05,06,11,12,22.10
2013,05,06,11,13,22.10
2013,05,06,11,14,22.10
2013,05,06,11,15,22.10
2013,05,06,11,16,22.20
2013,05,06,11,17,22.30
2013,05,06,11,18,22.30
2013,05,06,11,19,22.20
2013,05,06,11,20,22.30
2013,05,06,11,21,22.30
2013,05,06,11,22,22.40
2013,05,06,11,23,22.60
2013,05,06,11,24,22.70
2013,05,06,11,25,22.80
2013,05,06,11,26,22.80
2013,05,06,11,27,22.90
2013,05,06,11,28,22.90
2013,05,06,11,29,22.90
2013,05,06,11,30,22.90
2013,05,06,11,31,22.90
2013,05,06,11,32,22.80
2013,05,06,11,33,22.70
2013,05,06,11,34,22.70
2013,05,06,11,35,22.60
2013,05,06,11,36,22.60
2013,05,06,11,37,22.50
2013,05,06,11,38,22.50
2013,05,06,11,39,22.50
2013,05,06,11,40,22.50
2013,05,06,11,41,22.30
2013,05,06,11,42,22.30
2013,05,06,11,43,22.30
2013,05,06,11,44,22.40
2013,05,06,11,45,22.50
2013,05,06,11,46,22.50
2013,05,06,11,47,22.60
2013,05,06,11,48,22.70
2013,05,06,11,49,22.70
2013,05,06,11,50,22.70
2013,05,06,11,51,22.80
2013,05,06,11,52,22.80
2013,05,06,11,53,22.80
2013,05,06,11,54,22.80
2013,05,06,11,55,22.70
2013,05,06,11,56,22.70
2013,05,06,11,57,22.70
2013,05,06,11,58,22.70
2013,05,06,11,59,22.70
2013,05,06,12,00,22.70
2013,05,06,12,01,22.70
2013,05,06,12,02,22.60
2013,05,06,12,03,22.60
2013,05,06,12,04,22.60
2013,05,06,12,05,22.60
2013,05,06,12,06,22.50
2013,05,06,12,07,22.50
2013,05,06,12,08,22.40
2013,05,06,12,09,22.40
2013,05,06,12,10,22.30
2013,05,06,12,11,22.30
2013,05,06,12,12,22.30
2013,05,06,12,13,22.20
2013,05,06,12,14,22.20
2013,05,06,12,15,22.10
2013,05,06,12,16,22.20
2013,05,06,12,17,22.20
2013,05,06,12,18,22.10
2013,05,06,12,19,22.20
2013,05,06,12,20,22.30
2013,05,06,12,21,22.40
2013,05,06,12,22,22.40
2013,05,06,12,23,22.40
2013,05,06,12,24,22.30
2013,05,06,12,25,22.30
2013,05,06,12,26,22.30
2013,05,06,12,27,22.30
2013,05,06,12,28,22.40
2013,05,06,12,29,22.50
2013,05,06,12,30,22.50
2013,05,06,12,31,22.50
2013,05,06,12,32,22.60
2013,05,06,12,33,22.70
2013,05,06,12,34,22.80
2013,05,06,12,35,22.80
2013,05,06,12,36,22.80
2013,05,06,12,37,22.80
2013,05,06,12,38,22.90
2013,05,06,12,39,22.90
2013,05,06,12,40,23.00
2013,05,06,12,41,23.10
2013,05,06,12,42,23.20
2013,05,06,12,43,23.20
2013,05,06,12,44,23.20
2013,05,06,12,45,23.00
2013,05,06,12,46,22.90
2013,05,06,12,47,22.80
2013,05,06,12,48,22.80
2013,05,06,12,49,22.80
2013,05,06,12,50,22.80
2013,05,06,12,51,22.90
2013,05,06,12,52,22.90
2013,05,06,12,53,23.00
2013,05,06,12,54,23.10
2013,05,06,12,55,23.10
2013,05,06,12,56,23.10
2013,05,06,12,57,23.20
2013,05,06,12,58,23.20
2013,05,06,12,59,23.20
2013,05,06,13,00,23.30
2013,05,06,13,01,23.30
2013,05,06,13,02,23.40
2013,05,06,13,03,23.50
2013,05,06,13,04,23.60
2013,05,06,13,05,23.70
2013,05,06,13,06,23.70
2013,05,06,13,07,23.70
2013,05,06,13,08,23.70
2013,05,06,13,09,23.70
2013,05,06,13,10,23.70
2013,05,06,13,11,23.70
2013,05,06,13,12,23.60
2013,05,06,13,13,23.60
2013,05,06,13,14,23.60
2013,05,06,13,15,23.60
2013,05,06,13,16,23.60
2013,05,06,13,17,23.70
2013,05,06,13,18,23.70
2013,05,06,13,19,23.70
2013,05,06,13,20,23.80
2013,05,06,13,21,23.80
2013,05,06,13,22,23.70
2013,05,06,13,23,23.70
2013,05,06,13,24,23.70
2013,05,06,13,25,23.70
2013,05,06,13,26,23.70
2013,05,06,13,27,23.70
2013,05,06,13,28,23.70
2013,05,06,13,29,23.70
2013,05,06,13,30,23.70
2013,05,06,13,31,23.70
2013,05,06,13,32,23.70
2013,05,06,13,33,23.70
2013,05,06,13,34,23.70
2013,05,06,13,35,23.70
2013,05,06,13,36,23.70
2013,05,06,13,37,23.70
2013,05,06,13,38,23.70
2013,05,06,13,39,23.80
2013,05,06,13,40,23.90
2013,05,06,13,41,24.00
2013,05,06,13,42,24.10
2013,05,06,13,43,24.10
2013,05,06,13,44,24.10
2013,05,06,13,45,24.00
2013,05,06,13,46,23.90
2013,05,06,13,47,23.80
2013,05,06,13,48,23.70
2013,05,06,13,49,23.80
2013,05,06,13,50,23.80
2013,05,06,13,51,23.80
2013,05,06,13,52,23.80
2013,05,06,13,53,23.80
2013,05,06,13,54,23.70
2013,05,06,13,55,23.70
2013,05,06,13,56,23.80
2013,05,06,13,57,23.90
2013,05,06,13,58,23.90
2013,05,06,13,59,23.90
2013,05,06,14,00,23.90
2013,05,06,14,01,24.00
2013,05,06,14,02,24.00
2013,05,06,14,03,24.10
2013,05,06,14,04,24.10
2013,05,06,14,05,24.20
2013,05,06,14,06,24.30
2013,05,06,14,07,24.30
2013,05,06,14,08,24.30
2013,05,06,14,09,24.30
2013,05,06,14,10,24.30
2013,05,06,14,11,24.40
2013,05,06,14,12,24.40
2013,05,06,14,13,24.40
2013,05,06,14,14,24.40
2013,05,06,14,15,24.40
2013,05,06,14,16,24.30
2013,05,06,14,17,24.40
2013,05,06,14,18,24.50
2013,05,06,14,19,24.60
2013,05,06,14,20,24.70
2013,05,06,14,21,24.70
2013,05,06,14,22,24.70
2013,05,06,14,23,24.80
2013,05,06,14,24,24.70
2013,05,06,14,25,24.70
2013,05,06,14,26,24.70
2013,05,06,14,27,24.80
2013,05,06,14,28,24.80
2013,05,06,14,29,24.80
2013,05,06,14,30,24.80
2013,05,06,14,31,24.80
2013,05,06,14,32,24.90
2013,05,06,14,33,24.90
2013,05,06,14,34,24.90
2013,05,06,14,35,25.00
2013,05,06,14,36,25.10
2013,05,06,14,37,25.10
2013,05,06,14,38,25.20
2013,05,06,14,39,25.30
2013,05,06,14,40,25.30
2013,05,06,14,41,25.30
2013,05,06,14,42,25.30
2013,05,06,14,43,25.40
2013,05,06,14,44,25.40
2013,05,06,14,45,25.40
2013,05,06,14,46,25.40
2013,05,06,14,47,25.50
2013,05,06,14,48,25.50
2013,05,06,14,49,25.40
2013,05,06,14,50,25.40
2013,05,06,14,51,25.40
2013,05,06,14,52,25.40
2013,05,06,14,53,25.40
2013,05,06,14,54,25.40
2013,05,06,14,55,25.40
2013,05,06,14,56,25.40
2013,05,06,14,57,25.40
2013,05,06,14,58,25.50
2013,05,06,14,59,25.50
2013,05,06,15,00,25.50
2013,05,06,15,01,25.60
2013,05,06,15,02,25.70
2013,05,06,15,03,25.80
2013,05,06,15,04,25.80
2013,05,06,15,05,25.70
2013,05,06,15,06,25.70
2013,05,06,15,07,25.60
2013,05,06,15,08,25.50
2013,05,06,15,09,25.50
2013,05,06,15,10,25.50
2013,05,06,15,11,25.60
2013,05,06,15,12,25.60
2013,05,06,15,13,25.70
2013,05,06,15,14,25.80
2013,05,06,15,15,25.70
2013,05,06,15,16,25.60
2013,05,06,15,17,25.60
2013,05,06,15,18,25.60
2013,05,06,15,19,25.60
2013,05,06,15,20,25.60
2013,05,06,15,21,25.60
2013,05,06,15,22,25.60
2013,05,06,15,23,25.70
2013,05,06,15,24,25.80
2013,05,06,15,25,25.90
2013,05,06,15,26,26.00
2013,05,06,15,27,26.20
2013,05,06,15,28,26.20
2013,05,06,15,29,26.20
2013,05,06,15,30,26.20
2013,05,06,15,31,26.30
2013,05,06,15,32,26.30
2013,05,06,15,33,26.30
2013,05,06,15,34,26.10
2013,05,06,15,35,26.00
2013,05,06,15,36,26.00
2013,05,06,15,37,25.90
2013,05,06,15,38,25.90
2013,05,06,15,39,25.90
2013,05,06,15,40,25.90
2013,05,06,15,41,25.90
2013,05,06,15,42,26.00
2013,05,06,15,43,26.10
2013,05,06,15,44,26.00
2013,05,06,15,45,26.00
2013,05,06,15,46,26.00
2013,05,06,15,47,26.10
2013,05,06,15,48,26.10
2013,05,06,15,49,26.20
2013,05,06,15,50,26.20
2013,05,06,15,51,26.20
2013,05,06,15,52,26.10
2013,05,06,15,53,26.00
2013,05,06,15,54,25.90
2013,05,06,15,55,25.90
2013,05,06,15,56,25.80
2013,05,06,15,57,25.90
2013,05,06,15,58,25.90
2013,05,06,15,59,25.90
2013,05,06,16,00,26.00
2013,05,06,16,01,26.00
2013,05,06,16,02,26.10
2013,05,06,16,03,26.20
2013,05,06,16,04,26.30
2013,05,06,16,05,26.40
2013,05,06,16,06,26.50
2013,05,06,16,07,26.60
2013,05,06,16,08,26.60
2013,05,06,16,09,26.70
2013,05,06,16,10,26.80
2013,05,06,16,11,26.80
2013,05,06,16,12,26.80
2013,05,06,16,13,26.80
2013,05,06,16,14,26.80
2013,05,06,16,15,26.70
2013,05,06,16,16,26.60
2013,05,06,16,17,26.70
2013,05,06,16,18,26.70
2013,05,06,16,19,26.80
2013,05,06,16,20,26.80
2013,05,06,16,21,26.90
2013,05,06,16,22,26.90
2013,05,06,16,23,26.80
2013,05,06,16,24,26.80
2013,05,06,16,25,26.80
2013,05,06,16,26,26.70
2013,05,06,16,27,26.70
2013,05,06,16,28,26.70
2013,05,06,16,29,26.70
2013,05,06,16,30,26.70
2013,05,06,16,31,26.60
2013,05,06,16,32,26.70
2013,05,06,16,33,26.70
2013,05,06,16,34,26.80
2013,05,06,16,35,26.80
2013,05,06,16,36,26.80
2013,05,06,16,37,26.80
2013,05,06,16,38,26.80
2013,05,06,16,39,26.70
2013,05,06,16,40,26.70
2013,05,06,16,41,26.70
2013,05,06,16,42,26.70
2013,05,06,16,43,26.80
2013,05,06,16,44,26.80
2013,05,06,16,45,26.80
2013,05,06,16,46,26.90
2013,05,06,16,47,26.90
2013,05,06,16,48,26.90
2013,05,06,16,49,26.90
2013,05,06,16,50,26.80
2013,05,06,16,51,26.80
2013,05,06,16,52,26.80
2013,05,06,16,53,26.90
2013,05,06,16,54,27.00
2013,05,06,16,55,27.10
2013,05,06,16,56,27.10
2013,05,06,16,57,27.20
2013,05,06,16,58,27.20
2013,05,06,16,59,27.20
2013,05,06,17,00,27.20
2013,05,06,17,01,27.10
2013,05,06,17,02,26.90
2013,05,06,17,03,26.90
2013,05,06,17,04,27.00
2013,05,06,17,05,27.00
2013,05,06,17,06,26.90
2013,05,06,17,07,26.90
2013,05,06,17,08,26.80
2013,05,06,17,09,26.70
2013,05,06,17,10,26.60
2013,05,06,17,11,26.60
2013,05,06,17,12,26.50
2013,05,06,17,13,26.40
2013,05,06,17,14,26.40
2013,05,06,17,15,26.40
2013,05,06,17,16,26.40
2013,05,06,17,17,26.40
2013,05,06,17,18,26.30
2013,05,06,17,19,26.30